Location: Raven Hill Discovery Center
(45.1336°N, 85.0553°W)
Time: 16:45:04
(UTC-04:00)

Daily predictions for brighter satellites

Satellite Brightness Start Highest point End
(mag) Time Altitude Azimuth Time Altitude Azimuth Time Altitude Azimuth
HJ-1C 3.5 20:26:58 10° SSE 20:30:19 60° ENE 20:33:43 10° N
SeaSat 1 2.5 20:25:40 10° SSE 20:30:35 81° ENE 20:35:33 10° NNW
Cosmos 2123 Rocket 4.0 20:26:44 10° N 20:33:03 66° E 20:39:17 10° SSE
Cosmos 1937 Rocket 3.7 20:29:12 10° SSW 20:34:28 85° WNW 20:39:49 10° NNE
SL-27 R/B 2.8 20:32:02 10° NNW 20:35:36 72° WSW 20:39:12 10° SSE
RESURS DK-1 2.8 20:33:28 10° NNW 20:37:34 66° WSW 20:41:40 10° SSE
Cosmos 2344 3.7 20:34:24 10° SSW 20:42:02 77° ESE 20:50:45 10° NE
BREEZE-M DEB (TANK) 3.2 20:39:58 10° WNW 20:42:14 30° N 20:44:30 10° ENE
CZ-2D R/B 3.6 20:40:53 10° SE 20:44:35 46° ENE 20:48:19 10° N
In-Cosmos 22 4.0 20:39:46 10° N 20:45:06 72° ENE 20:50:22 10° SSE
CZ-3B DEB 2.9 20:34:30 10° SW 20:46:08 90° NNW 20:51:15 10° NE
Cosmos 1818 3.6 20:43:12 10° NNW 20:48:41 72° NE 20:54:05 10° SE
Cosmos 1805 3.5 20:45:16 10° SSE 20:48:59 45° E 20:52:44 10° NNE
COSMOS 2487 3.3 20:47:09 10° N 20:50:25 32° ENE 20:53:16 12° SE
Cosmos 1844 Rocket 3.8 20:45:40 10° SW 20:51:07 49° WNW 20:56:36 10° NNE
Cosmos 482 Debris 4.3 20:52:08 10° NW 20:53:41 20° NNE 20:54:32 15° ENE
ALOS 2.7 20:49:18 10° S 20:53:56 66° W 20:58:37 10° NNW
Cosmos 1269 Rocket 4.2 20:50:04 10° NNW 20:55:14 52° ENE 21:00:23 10° SE
Resurs 1-3 3.5 20:51:55 10° SSE 20:56:17 75° ENE 21:00:41 10° N
Cosmos 1437 Rocket 4.4 20:53:56 10° SW 20:57:45 40° WNW 21:01:39 10° N
Timation 2 Rocket 4.2 20:53:49 10° NNW 21:00:02 52° NE 21:05:26 13° SE
Meteor 1-4 Rocket 2.7 20:56:59 10° S 21:00:19 45° E 21:03:39 10° NNE
Cosmos 1833 Rocket 2.9 20:55:04 10° NNW 21:00:35 53° ENE 21:05:39 12° SE
Timation 1 Rocket 4.4 20:55:24 10° S 21:01:13 55° ESE 21:07:06 10° NE
Cosmos 468 4.5 20:56:32 10° NNW 21:01:48 84° ENE 21:07:03 10° SSE
Cosmos 1408 Rocket 4.0 20:59:04 10° N 21:03:22 43° ENE 21:07:37 10° SSE
FENGYUN 3A 4.3 20:58:09 10° S 21:03:30 61° W 21:08:51 10° NNW
Cosmos 1470 3.7 21:01:43 10° SSE 21:05:04 27° E 21:08:26 10° NNE
Cosmos 2278 Rocket 2.4 21:02:34 10° SSW 21:08:14 79° WNW 21:13:57 10° NNE
Cosmos 1544 2.9 21:05:05 10° S 21:08:43 79° E 21:12:25 10° N
Cosmos 1340 Rocket 3.6 21:06:38 10° N 21:10:16 31° ENE 21:12:09 21° ESE
Cosmos 1447 Rocket 4.4 21:05:01 10° N 21:11:10 73° E 21:17:18 10° SSE
Cosmos 372 Rocket 4.2 21:07:43 10° S 21:12:33 45° ESE 21:17:28 10° NNE
Spot 1 4.3 21:08:39 10° SSE 21:13:17 69° ENE 21:18:13 10° N
CZ-4B DEB 3.1 21:12:04 23° SE 21:13:31 40° ENE 21:16:29 10° N
Cosmos 1733 4.0 21:10:59 12° SSE 21:14:04 31° E 21:17:32 10° NNE
Cosmos 2098 Rocket 4.4 21:07:08 10° S 21:14:22 71° E 21:21:56 10° NNE
Cosmos 1459 Rocket 4.4 21:09:19 10° SSE 21:15:05 41° E 21:20:49 10° NNE
USA 215 3.8 21:11:55 10° ENE 21:17:42 33° SE 21:23:27 10° S
Cosmos 158 Rocket 3.9 21:13:15 10° NNW 21:18:21 68° ENE 21:22:45 15° SSE
Okean 3 Rocket 4.2 21:15:00 10° NNW 21:19:20 59° W 21:23:39 10° S
ATLAS 5 CENTAUR R/B 2.3 21:15:05 10° S 21:19:20 35° ESE 21:23:55 10° NE
ISS -1.9 21:17:11 10° S 21:18:25 16° SSE 21:18:25 16° SSE
Cosmos 2173 Rocket 4.3 21:15:03 10° SSE 21:20:50 44° E 21:26:44 10° NNE
Cosmos 2151 4.5 21:20:08 10° NNE 21:23:11 19° ENE 21:23:14 19° ENE
H-2A R/B 4.0 21:19:43 10° S 21:23:27 43° W 21:27:13 10° NNW
Cosmos 2297 3.6 21:18:28 10° SSW 21:24:07 68° ESE 21:29:50 10° NNE
Abrixas 3.8 21:23:30 10° W 21:26:02 29° SSW 21:26:58 23° S
Cosmos 1867 3.5 21:20:56 10° SSW 21:26:18 64° ESE 21:31:44 10° NE
Spot 2 Rocket 4.3 21:23:55 10° S 21:28:53 51° W 21:33:53 10° NNW
Helios 1B rocket 2.3 21:27:36 10° NNE 21:31:45 74° ESE 21:35:51 10° S
Cosmos 1076 Rocket 3.9 21:28:22 10° NNW 21:32:36 65° W 21:36:47 10° S
Cosmos 1758 3.8 21:29:45 10° SSW 21:33:41 63° W 21:37:41 10° N
Cosmos 2082 Rocket 2.3 21:30:47 10° NNW 21:36:30 77° WSW 21:41:10 15° SSE
SL-14 R/B 4.1 21:34:49 10° NNE 21:38:04 30° ENE 21:38:04 30° ENE
Lacrosse 5 2.7 21:34:13 10° WSW 21:39:09 51° NNW 21:44:07 10° NE
USA 186 2.8 21:39:54 22° SW 21:40:43 29° W 21:42:44 10° NW
Cosmos 1328 4.3 21:37:19 10° N 21:41:03 38° ENE 21:41:11 38° E
Cosmos 1953 3.0 21:37:39 10° SSW 21:41:39 56° W 21:45:39 10° N
Lacrosse 4 Rocket 4.4 21:41:15 10° WNW 21:43:31 14° NW 21:45:49 10° N
SWAS 4.3 21:39:40 10° SSW 21:43:56 68° ESE 21:48:13 10° NNE
SPOT 5 4.0 21:45:02 28° E 21:45:57 30° ENE 21:50:32 10° N
GP-B 3.3 21:42:05 10° S 21:46:29 71° W 21:50:57 10° N
Envisat 2.9 21:42:59 18° SSE 21:46:53 90° NE 21:52:00 10° NNW
Cosmos 1939 Rocket 2.8 21:45:33 33° SSE 21:47:20 80° ENE 21:51:32 10° N
Helios 1A 3.7 21:43:29 10° S 21:47:33 53° W 21:51:41 10° NNW
Cosmos 1766 Rocket 4.0 21:43:57 10° NNW 21:48:23 62° W 21:52:35 11° S
Cosmos 1271 Rocket 2.7 21:46:19 10° S 21:50:20 87° ESE 21:54:24 10° N
USA 267 3.9 21:48:09 23° E 21:51:53 44° NNE 21:58:00 10° NW
ARGOS 4.0 21:51:33 29° ENE 21:52:11 30° ENE 21:56:49 10° N
Resurs 01 Rocket 3.8 21:48:52 10° SSW 21:52:30 25° W 21:56:10 10° NW
Cosmos 2016 Rocket 4.0 21:47:02 13° SSE 21:52:32 56° E 21:58:32 10° NNE
H-2A R/B 3.6 21:52:51 20° ENE 21:52:55 20° ENE 21:56:43 10° NNE
Cosmos 1184 Rocket 3.3 21:52:17 10° N 21:55:05 50° NNE 21:55:05 50° NNE
Cosmos 1125 Rocket 4.1 21:51:42 10° SW 21:56:48 57° WNW 22:01:59 10° NNE
Geosat 4.4 21:53:08 10° NNE 21:58:08 65° WNW 22:03:05 10° SW
Cosmos 1725 Rocket 4.2 21:59:08 38° SE 22:00:45 45° E 22:06:36 10° NNE
Cosmos-2242 3.3 21:56:33 10° SSW 22:00:46 66° W 22:05:01 10° N
Lacrosse 5 rocket 1.0 21:58:18 10° NW 22:02:14 79° SW 22:02:25 76° S
Terra 4.0 22:04:46 13° NE 22:04:46 13° NE 22:06:06 10° NNE
Cosmos 1674 4.1 22:00:42 10° NNW 22:04:13 37° W 22:06:52 16° SSW
ERS-1 Rocket 2.9 22:03:22 46° SE 22:04:51 74° ENE 22:09:54 10° N
Cosmos 2100 Rocket 4.2 22:02:16 10° SSW 22:08:35 76° W 22:15:01 10° N
YAOGAN 6 2.8 22:10:52 68° N 22:10:52 68° N 22:14:12 10° N
SL-08 R/B 4.4 22:10:09 27° S 22:13:47 69° E 22:20:10 10° NNE
Tsikada Rocket 4.0 22:09:57 10° N 22:16:06 62° ENE 22:17:28 50° SE
Cosmos 1743 Rocket 4.0 22:15:30 10° NNW 22:19:53 61° W 22:21:02 44° SSW
Cosmos 1500 Rocket 3.5 22:17:19 10° N 22:21:39 80° W 22:21:47 78° WSW
H-2A R/B 4.1 22:23:36 16° NNE 22:23:36 16° NNE 22:24:52 10° NNE
Cosmos 1356 Rocket 3.5 22:20:20 10° NNW 22:24:09 71° NW 22:24:09 71° NW
Cosmos 1802 Rocket 4.3 22:23:49 10° SSW 22:29:54 66° W 22:36:04 10° N
Cosmos 2369 Rocket 4.3 22:34:54 14° NE 22:34:54 14° NE 22:35:38 10° NE
Cosmos 2251 Rocket 3.6 22:28:10 10° NNW 22:33:29 75° WSW 22:34:11 64° SSW
BREEZE-M DEB (TANK) 4.3 22:29:34 10° W 22:33:30 72° N 22:48:42 10° ENE
SPOT 1/Viking Rocket 3.9 22:37:04 50° NE 22:37:04 50° NE 22:41:29 10° N
Cosmos 1626 4.3 22:33:00 10° N 22:34:16 19° N 22:34:16 19° N
MetOp-B 4.1 22:44:56 75° SW 22:45:13 77° WSW 22:50:36 10° NNW
NOAA 11 4.2 22:49:03 72° SW 22:49:21 74° WSW 22:54:53 10° NNW
Cosmos 1816 Rocket 4.3 22:43:49 10° N 22:50:03 89° W 22:50:34 76° S
Cosmos 2058 4.3 22:51:09 10° NNW 22:53:55 37° NW 22:53:55 37° NW
CZ-3B DEB 3.4 22:52:30 10° W 22:58:26 28° NNW 22:59:39 24° N
Cosmos 2151 4.4 22:56:41 10° NNW 22:59:52 36° WNW 22:59:52 36° WNW
USA 215 3.2 22:54:33 10° NE 23:01:06 79° NW 23:07:37 10° WSW
USA 245 4.4 23:01:57 72° WSW 23:01:58 72° W 23:08:14 10° NNW
ATLAS 5 CENTAUR R/B 3.2 22:59:26 10° WSW 23:03:56 38° NW 23:08:53 10° NNE
Cosmos 2233 Rocket 4.0 23:07:54 72° N 23:07:54 72° N 23:13:23 10° N
MOS 1-B Rocket 4.4 23:08:04 72° SSE 23:08:59 88° ENE 23:16:00 10° NNW
BREEZE-M DEB (TANK) 4.2 23:07:17 10° WSW 23:12:22 86° SSE 23:35:29 10° E
Lacrosse 5 3.9 23:19:06 10° WNW 23:23:08 23° N 23:24:38 20° NNE
SPOT 5 4.1 23:24:16 41° W 23:24:16 41° W 23:28:52 10° NNW
H-2A R/B 3.1 23:33:28 44° NW 23:33:28 44° NW 23:37:09 10° NNW
ARGOS 4.3 23:33:03 38° WNW 23:33:03 38° WNW 23:37:20 10° NNW
USA 267 3.4 23:35:30 68° WNW 23:35:30 68° WNW 23:41:11 10° NW
Terra 3.8 23:43:39 25° NNW 23:43:39 25° NNW 23:45:40 10° NNW
